KE9LZ Weather Reports


time (UTC)temp
F
wind
direction
speed
knots
gust
knots
rain 1hr
in
rain 24hr
in
rain mn
in
humidity
%
barometer
mb
20260508130004 48 216 5.2 13.0 0.00 0.00 0.00 71 1014.8
20260508124003 46 174 4.3 10.4 0.00 0.00 0.00 74 1014.7
20260508123004 45 193 5.2 10.4 0.00 0.00 0.00 74 1014.7
20260508122004 45 195 4.3 8.7 0.00 0.00 0.00 74 1014.7
20260508121003 44 185 3.5 7.0 0.00 0.00 0.00 75 1014.6
20260508120003 43 189 4.3 8.7 0.00 0.00 0.00 76 1014.8
20260508115003 42 190 7.0 11.3 0.00 0.00 0.00 77 1014.5
20260508114004 41 174 5.2 7.0 0.00 0.00 0.00 77 1014.6
20260508113004 40 192 2.6 8.7 0.00 0.00 0.00 78 1014.8
20260508110004 39 129 4.3 8.7 0.00 0.00 0.00 78 1014.5
20260508105003 38 171 5.2 7.8 0.00 0.00 0.00 77 1014.3
20260508104003 38 163 2.6 7.8 0.00 0.00 0.00 76 1014.3
20260508103003 38 163 2.6 5.2 0.00 0.00 0.00 77 1014.4
20260508101003 38 160 1.7 6.1 0.00 0.00 0.00 77 1014.4
20260508100004 38 166 2.6 5.2 0.00 0.00 0.00 77 1014.5
20260508095004 39 176 2.6 6.1 0.00 0.00 0.00 76 1014.4
20260508093003 40 196 3.5 7.0 0.00 0.00 0.00 75 1014.6
20260508091004 40 175 4.3 7.8 0.00 0.00 0.00 76 1014.4
20260508090004 40 140 3.5 8.7 0.00 0.00 0.00 76 1014.8
20260508085004 39 165 2.6 7.0 0.00 0.00 0.00 77 1014.5
20260508084004 39 161 2.6 5.2 0.00 0.00 0.00 76 1014.6
20260508083003 39 160 2.6 5.2 0.00 0.00 0.00 75 1014.8
20260508080003 40 188 4.3 7.8 0.00 0.00 0.00 73 1014.9
20260508075004 40 172 3.5 7.8 0.00 0.00 0.00 72 1015.1
20260508074003 40 193 4.3 7.0 0.00 0.00 0.00 72 1015.0
20260508073004 40 180 4.3 7.0 0.00 0.00 0.00 71 1015.3
20260508072004 40 166 3.5 7.8 0.00 0.00 0.00 71 1015.1
20260508071003 40 165 4.3 8.7 0.00 0.00 0.00 70 1015.4
20260508070003 40 168 4.3 8.7 0.00 0.00 0.00 70 1015.6
20260508065003 40 155 4.3 7.8 0.00 0.00 0.00 70 1015.4
20260508064004 40 183 5.2 7.8 0.00 0.00 0.00 69 1015.5
20260508063004 40 162 4.3 7.8 0.00 0.00 0.00 69 1015.8
20260508062003 40 182 5.2 8.7 0.00 0.00 0.00 70 1015.7
20260508061004 40 165 4.3 7.0 0.00 0.00 0.00 70 1015.7
20260508060003 40 176 5.2 10.4 0.00 0.00 0.00 69 1015.8
20260508055004 41 190 5.2 7.8 0.00 0.00 0.00 69 1016.0
20260508054004 41 190 5.2 10.4 0.00 0.00 0.00 69 1015.8
20260508053004 41 185 4.3 8.7 0.00 0.00 0.00 69 1015.7
20260508051003 40 165 1.7 6.1 0.00 0.00 0.00 71 1016.2
20260508050003 40 185 2.6 7.0 0.00 0.00 0.00 72 1016.0
20260508045004 39 142 2.6 5.2 0.00 0.00 0.00 74 1016.0
20260508044003 40 157 1.7 4.3 0.00 0.00 0.00 74 1015.9
20260508043003 40 147 2.6 4.3 0.00 0.00 0.00 74 1016.0
20260508042004 40 137 3.5 5.2 0.00 0.00 0.00 74 1016.2
20260508041003 40 149 2.6 4.3 0.00 0.00 0.00 74 1016.0
20260508040003 40 123 2.6 6.1 0.00 0.00 0.00 74 1016.1
20260508034004 41 118 2.6 5.2 0.00 0.00 0.00 74 1015.9
20260508033003 41 122 2.6 5.2 0.00 0.00 0.00 74 1015.9
20260508032003 41 117 2.6 5.2 0.00 0.00 0.00 73 1015.9
20260508031003 42 131 3.5 7.0 0.00 0.00 0.00 72 1016.0
20260508030004 42 131 2.6 6.1 0.00 0.00 0.00 70 1016.0
20260508025004 43 120 4.3 7.0 0.00 0.00 0.00 69 1015.8
20260508024004 43 122 4.3 5.2 0.00 0.00 0.00 69 1015.9
20260508023003 44 108 2.6 4.3 0.00 0.00 0.00 69 1015.7
20260508022003 44 96 2.6 5.2 0.00 0.00 0.00 67 1015.8
20260508021004 45 105 2.6 5.2 0.00 0.00 0.00 65 1015.8
20260508020004 46 96 2.6 5.2 0.00 0.00 0.00 62 1015.8
20260508015004 47 97 3.5 4.3 0.00 0.00 0.00 53 1015.5
20260508014003 49 104 2.6 2.6 0.00 0.00 0.00 40 1015.3
20260508013004 50 91 1.7 4.3 0.00 0.00 0.00 38 1015.7
20260508012004 50 28 2.6 6.1 0.00 0.00 0.00 38 1015.4
20260508011003 51 11 3.5 8.7 0.00 0.00 0.00 37 1015.2
20260508010003 51 18 4.3 8.7 0.00 0.00 0.00 37 1015.3
20260508005003 51 18 4.3 7.8 0.00 0.00 0.00 38 1015.0
20260508004003 52 355 3.5 7.0 0.00 0.00 0.00 37 1014.9
20260508002004 52 339 1.7 7.0 0.00 0.00 0.00 38 1014.7
20260508001003 52 326 1.7 8.7 0.00 0.00 0.00 38 1014.7
20260507235004 52 5 3.5 7.8 0.00 0.00 0.00 38 1014.6
20260507234003 52 0 4.3 7.0 0.00 0.00 0.00 38 1014.9
20260507233003 52 326 1.7 7.8 0.00 0.00 0.00 39 1014.5
20260507232003 52 293 2.6 7.8 0.00 0.00 0.00 39 1014.7
20260507231003 52 307 3.5 8.7 0.00 0.00 0.00 38 1014.7
20260507230004 53 330 4.3 7.0 0.00 0.00 0.00 38 1015.0
20260507225003 53 321 4.3 11.3 0.00 0.00 0.00 38 1014.7
20260507224004 53 295 4.3 11.3 0.00 0.00 0.00 38 1015.0
20260507223003 53 225 1.7 12.2 0.00 0.00 0.00 38 1015.2
20260507222004 52 287 6.1 11.3 0.00 0.00 0.00 39 1015.2
20260507221003 52 294 5.2 10.4 0.00 0.00 0.00 38 1015.2
20260507220003 52 325 6.1 11.3 0.00 0.00 0.00 38 1015.1
20260507215004 52 300 4.3 8.7 0.00 0.00 0.00 38 1015.4
20260507214004 53 334 4.3 8.7 0.00 0.00 0.00 39 1015.4
20260507213004 51 306 4.3 17.4 0.00 0.00 0.00 39 1015.4
20260507210003 52 265 4.3 13.9 0.00 0.00 0.00 39 1015.2
20260507205003 52 291 6.1 12.2 0.00 0.00 0.00 39 1015.3
20260507204004 51 303 8.7 15.6 0.00 0.00 0.00 40 1015.7
20260507203004 51 307 8.7 18.2 0.00 0.00 0.00 39 1015.7
20260507202004 52 243 2.6 11.3 0.00 0.00 0.00 39 1015.6
20260507201004 51 288 5.2 10.4 0.00 0.00 0.00 42 1015.9
20260507200004 51 328 7.8 13.0 0.00 0.00 0.00 40 1015.8
20260507194003 52 295 6.1 14.8 0.00 0.00 0.00 38 1015.9
20260507193004 51 252 5.2 13.9 0.00 0.00 0.00 41 1016.3
20260507192003 52 233 7.0 12.2 0.00 0.00 0.00 40 1016.2
20260507191004 52 293 6.1 14.8 0.00 0.00 0.00 42 1016.2
20260507190004 51 288 7.0 13.9 0.00 0.00 0.00 43 1016.3
20260507185004 50 187 5.2 15.6 0.00 0.00 0.00 45 1016.2
20260507184004 51 285 3.5 12.2 0.00 0.00 0.00 44 1016.4
20260507183004 50 229 5.2 13.9 0.00 0.00 0.00 44 1016.6
20260507181004 52 262 6.1 12.2 0.00 0.00 0.00 43 1016.7
20260507180004 51 210 5.2 12.2 0.00 0.00 0.00 45 1016.9
20260507175004 50 279 5.2 12.2 0.00 0.00 0.00 44 1017.2
20260507172004 50 201 2.6 10.4 0.00 0.00 0.00 43 1017.3
20260507171003 50 236 4.3 8.7 0.00 0.00 0.00 42 1017.4
20260507170004 50 264 4.3 12.2 0.00 0.00 0.00 42 1017.5
20260507165003 49 305 4.3 11.3 0.00 0.00 0.00 43 1017.8
20260507164004 49 219 5.2 11.3 0.00 0.00 0.00 42 1018.0
20260507163004 48 268 4.3 10.4 0.00 0.00 0.00 43 1018.1
20260507162004 48 139 5.2 11.3 0.00 0.00 0.00 44 1018.3
20260507161004 49 271 6.1 11.3 0.00 0.00 0.00 43 1018.2
20260507160004 48 280 5.2 8.7 0.00 0.00 0.00 43 1018.2
20260507155004 48 325 4.3 7.8 0.00 0.00 0.00 44 1018.4
20260507154003 48 231 2.6 7.8 0.00 0.00 0.00 43 1018.8
20260507153004 47 298 6.1 12.2 0.00 0.00 0.00 44 1018.7
20260507152004 48 318 4.3 12.2 0.00 0.00 0.00 45 1018.9
20260507150003 47 286 4.3 12.2 0.00 0.00 0.00 47 1019.0
20260507145003 47 216 4.3 18.2 0.00 0.00 0.00 47 1019.1
20260507144004 46 279 4.3 13.0 0.00 0.00 0.00 52 1019.1
20260507142003 44 190 3.5 13.0 0.00 0.00 0.00 59 1019.6
20260507141003 44 275 4.3 13.0 0.00 0.00 0.00 60 1019.4
20260507140003 42 201 5.2 8.7 0.00 0.00 0.00 61 1019.3
20260507135003 42 189 1.7 7.8 0.00 0.00 0.00 63 1019.5
20260507133003 41 197 3.5 7.8 0.00 0.00 0.00 66 1019.8
20260507132004 40 255 2.6 6.1 0.00 0.00 0.00 66 1019.5